Wind_Speed
7 6 5 5 4 3 3 4 4 4 5 5 5 5 6 6 6 6 5 5 4 4 4 4 4 5 4 4 4 3 2 2 2 2 2 3 3 4 4 4 3 3 2
6 5 5 4 4 3 3 3 3 3 4 5 4 5 5 5 6 6 5 5 5 4 4 5 4 4 4 4 4 3 2 2 2 2 2 2 3 4 4 4 3 3 2
6 5 5 4 4 4 3 3 3 3 3 4 4 4 4 4 5 5 5 5 5 5 5 5 4 4 4 3 3 3 2 2 3 3 3 3 3 3 4 3 3 3 3
6 5 4 4 4 3 3 2 2 3 3 3 3 3 3 3 4 4 5 5 6 5 5 5 4 4 4 4 3 3 3 3 3 4 3 3 3 3 3 3 4 3 3
6 6 5 4 4 3 3 3 2 2 2 3 3 2 3 3 4 5 5 5 5 6 6 5 5 5 5 4 4 4 3 4 4 4 4 3 3 3 3 3 4 4 3
6 6 5 5 4 4 3 3 3 3 2 2 2 2 3 4 4 5 5 5 5 6 6 6 5 5 5 5 5 4 4 4 4 4 4 4 4 4 4 3 3 4 4
6 5 5 5 4 4 3 3 3 3 2 2 2 2 2 2 3 4 4 5 5 6 6 6 6 5 6 6 5 5 4 5 6 5 4 4 4 4 4 4 4 4 4
6 5 5 5 5 5 4 3 2 2 2 2 2 2 2 2 2 3 4 6 5 5 5 5 6 6 6 6 5 5 5 5 6 5 5 5 5 4 4 4 4 5 5
6 5 5 5 6 5 5 4 3 2 2 2 2 2 2 2 2 2 3 4 4 4 4 5 6 7 7 6 6 6 6 6 6 7 6 6 6 5 5 5 5 5 6
6 6 5 5 6 6 5 4 3 2 1 2 2 2 3 2 2 2 2 3 4 4 4 5 6 6 7 7 6 7 6 7 7 8 8 7 6 6 6 6 6 7 7
6 6 5 5 5 5 5 3 3 2 1 1 2 2 3 3 3 3 3 2 3 4 4 5 6 6 7 7 8 7 8 7 7 8 9 8 7 7 7 7 7 7 8
5 5 5 5 5 5 4 4 3 2 1 1 2 3 3 4 4 4 3 3 3 4 4 5 6 6 7 8 9 9 8 8 8 8 8 8 8 8 8 8 8 8 8
5 4 5 5 5 4 4 4 4 3 2 1 1 3 3 4 4 4 4 4 4 4 4 5 6 6 6 7 8 9 9 8 8 9 9 9 9 9 9 9 9 9 9
5 5 5 5 5 5 5 5 4 4 3 1 1 2 3 3 4 4 5 5 6 5 6 6 7 6 6 7 7 8 9 8 8 9 10 10 10 10 10 10 10 10 10
5 5 5 5 6 6 6 6 5 5 4 2 1 2 3 3 4 4 4 5 6 6 7 7 6 6 6 6 7 7 9 9 9 10 10 11 11 11 11 11 11 11 11
6 5 6 6 6 6 6 6 6 5 5 5 3 3 4 4 5 5 6 6 7 7 7 7 7 7 7 7 7 7 8 9 9 10 11 11 12 12 12 12 13 14 12
6 6 6 7 7 7 6 6 6 6 5 5 5 4 4 5 5 6 6 7 7 7 7 7 8 8 8 8 8 8 9 9 10 10 11 12 12 13 13 13 14 14 13
6 7 7 7 7 7 7 7 6 6 6 6 6 5 5 5 6 6 7 7 8 8 9 9 9 9 9 9 10 10 10 11 11 12 12 13 13 13 13 14 13 13 14
7 7 7 7 7 8 8 7 7 7 7 7 7 7 6 7 7 7 7 8 8 9 9 10 10 10 10 10 10 11 11 12 13 13 14 14 14 14 14 14 14 14 15
8 8 7 7 8 8 8 8 8 8 7 7 7 8 7 7 8 8 7 8 9 9 10 10 11 11 12 12 12 12 12 13 13 13 14 15 15 15 15 15 16 16 16
8 8 8 8 8 8 8 9 9 8 8 8 8 8 8 8 8 8 8 8 9 10 10 11 11 12 12 13 13 13 13 13 13 13 13 14 15 16 16 16 16 16 16
9 9 8 8 9 9 9 9 10 10 9 9 8 9 9 9 9 9 9 9 10 10 11 11 12 12 13 14 14 14 14 14 14 14 14 14 15 16 16 17 16 16 17
10 10 9 9 9 10 10 10 11 11 10 10 10 10 9 10 10 10 10 10 11 11 12 12 12 13 13 14 15 16 16 16 15 16 16 16 16 17 17 17 17 17 18
10 10 10 9 9 10 12 12 12 12 11 10 10 10 10 11 11 11 11 10 11 11 12 12 13 13 14 15 15 17 17 17 17 17 17 17 17 18 18 19 19 19 19
10 10 10 10 11 12 12 12 12 12 12 12 11 11 11 11 11 11 12 11 11 12 12 13 13 14 15 15 15 16 16 17 17 17 18 18 19 19 20 20 20 21 20
11 11 11 12 12 12 13 13 13 13 13 12 12 12 12 12 12 13 13 13 13 13 13 14 14 15 15 16 16 16 16 17 18 18 19 19 20 20 21 22 22 22 22
Wind_Direction
75 81 88 96 93 95 110 119 122 127 126 132 144 147 149 152 157 160 163 161 161 159 160 164 168 169 162 164 158 153 162 153 154 171 182 180 184 175 175 179 182 188 199
74 80 88 91 94 102 109 119 118 130 129 134 143 150 155 157 165 170 172 174 170 165 159 160 164 166 158 158 157 151 158 166 175 166 164 168 169 171 177 179 180 191 201
77 83 83 89 96 92 98 118 127 130 141 143 146 152 168 175 179 176 174 180 183 183 175 168 173 174 168 163 160 157 165 177 164 154 160 161 162 171 174 182 186 193 199
76 77 74 76 83 85 83 103 134 139 139 144 147 156 171 179 185 184 186 186 189 190 188 180 181 179 180 183 177 176 174 172 167 168 167 163 165 174 178 188 194 196 199
72 69 66 71 77 79 74 79 119 137 132 129 129 141 166 163 168 172 187 194 193 191 190 186 189 189 188 191 190 182 180 179 173 180 181 182 179 184 184 193 206 203 204
72 66 62 64 67 70 68 69 107 134 133 126 129 138 160 159 164 166 172 183 184 191 195 195 199 198 200 206 199 199 188 190 189 193 191 194 191 194 198 204 209 211 222
73 65 59 64 63 59 64 77 111 124 139 142 134 141 152 158 163 175 178 175 182 193 197 201 206 209 210 212 211 210 203 208 199 200 206 208 204 206 209 217 216 220 229
67 65 61 64 60 58 60 78 105 124 136 147 156 145 136 144 156 175 179 186 191 200 211 215 213 211 208 209 208 212 213 212 211 213 217 216 216 213 221 229 232 232 234
63 63 61 60 58 54 53 64 79 105 129 148 168 172 165 162 159 165 181 191 202 211 220 225 225 211 208 207 214 223 224 219 217 219 225 229 226 225 233 238 243 243 243
61 61 60 54 48 45 46 55 58 82 138 167 180 184 184 183 185 196 203 218 227 229 229 228 225 222 218 218 220 229 234 231 233 230 229 230 232 233 239 245 247 247 249
60 57 54 47 44 43 41 43 42 47 68 175 201 203 195 197 203 215 231 243 238 237 240 233 227 228 226 227 229 232 237 239 242 238 235 235 234 237 244 251 252 251 253
54 52 47 41 34 34 36 35 36 39 47 214 232 226 217 217 220 218 228 237 240 242 248 236 233 227 227 233 236 236 240 245 246 246 245 242 239 240 245 251 253 255 256
44 38 35 31 28 27 30 27 30 26 10 262 232 224 220 226 230 234 235 235 238 240 239 237 235 228 229 238 243 242 244 246 249 251 251 248 246 244 247 252 254 257 258
35 26 20 24 23 20 20 21 20 17 9 331 242 233 242 242 239 243 247 238 241 244 245 244 237 237 245 248 246 245 242 244 249 250 250 250 249 247 249 251 254 256 256
27 21 16 17 13 8 6 7 7 5 6 4 273 265 269 258 252 246 255 247 242 247 249 250 255 257 256 254 255 253 246 243 251 251 250 251 252 252 251 251 253 256 257
20 13 10 10 5 360 360 358 357 354 351 351 333 302 274 269 265 261 257 251 246 245 246 253 260 260 260 258 258 260 258 249 256 253 251 252 252 252 253 253 253 254 255
15 11 5 360 357 353 353 351 350 346 343 337 331 317 291 284 275 260 252 251 254 252 253 259 261 261 266 268 268 266 265 261 260 259 258 257 256 256 256 255 254 253 256
8 3 358 352 348 344 342 340 340 336 330 324 321 320 307 300 294 278 264 257 255 254 256 260 262 263 266 267 270 271 272 266 264 263 262 259 258 260 259 258 257 254 254
356 352 347 345 341 338 335 331 332 331 327 320 318 317 311 303 292 287 277 274 274 272 267 265 265 267 267 269 271 273 277 272 266 263 261 260 260 259 258 256 254 254 254
347 344 342 339 336 333 331 328 326 326 325 319 313 313 310 302 296 293 284 280 277 274 270 268 267 266 268 270 272 272 277 279 275 268 263 260 258 258 257 256 254 254 255
341 339 341 341 338 336 334 330 325 323 320 315 309 307 303 300 295 291 286 284 281 276 270 269 268 269 270 271 271 271 274 277 278 273 269 264 259 257 257 257 256 255 254
342 338 337 339 336 331 328 329 326 322 318 315 310 306 303 301 297 292 287 284 285 282 275 272 271 270 271 272 272 270 272 273 275 277 273 269 264 260 259 258 255 254 254
339 337 335 334 333 327 322 321 322 323 321 317 312 307 301 297 295 292 286 282 282 280 277 276 272 271 273 275 274 272 272 272 273 274 274 271 266 262 260 257 257 255 255
331 330 332 329 328 328 326 323 321 322 321 318 314 309 303 298 296 292 289 284 282 279 275 275 276 276 278 278 277 277 273 271 269 269 272 272 271 268 263 260 258 256 256
328 328 326 324 326 326 326 327 323 320 318 315 311 308 305 302 296 294 294 291 286 282 279 278 278 280 282 283 281 279 273 272 273 271 273 272 271 270 267 263 261 259 257
326 327 325 323 322 322 321 321 320 319 318 315 313 308 305 300 295 291 291 290 289 285 282 281 281 282 283 284 284 281 277 275 272 273 273 273 272 272 269 265 261 262 260
Height
5890 5889 5888 5888 5887 5886 5886 5886 5886 5886 5886 5886 5886 5886 5886 5886 5887 5887 5888 5888 5889 5889 5889 5889 5890 5890 5891 5891 5891 5892 5892 5893 5893 5894 5894 5894 5894 5895 5895 5896 5896 5896 5896
5890 5889 5889 5888 5888 5887 5886 5886 5886 5886 5886 5886 5886 5886 5886 5886 5886 5887 5887 5888 5889 5889 5889 5889 5890 5891 5891 5891 5892 5892 5892 5893 5893 5894 5894 5894 5894 5894 5895 5896 5896 5896 5896
5890 5890 5889 5889 5889 5888 5887 5887 5887 5887 5886 5886 5886 5886 5886 5886 5886 5886 5887 5887 5888 5889 5889 5889 5890 5890 5891 5891 5891 5892 5892 5893 5893 5893 5894 5894 5894 5894 5895 5896 5896 5896 5897
5891 5891 5890 5890 5889 5889 5888 5888 5887 5887 5886 5886 5886 5885 5885 5885 5884 5885 5886 5886 5887 5888 5889 5889 5889 5890 5890 5891 5891 5891 5892 5893 5893 5893 5894 5894 5894 5894 5895 5895 5896 5896 5896
5892 5892 5891 5890 5890 5889 5889 5888 5887 5887 5886 5886 5886 5885 5885 5885 5884 5885 5885 5886 5887 5888 5888 5889 5889 5890 5890 5890 5891 5891 5892 5892 5893 5893 5894 5894 5894 5895 5895 5895 5896 5896 5896
5893 5892 5892 5891 5891 5890 5889 5888 5887 5887 5886 5886 5886 5886 5885 5885 5885 5885 5885 5885 5886 5887 5888 5888 5889 5889 5890 5890 5891 5891 5892 5892 5893 5893 5894 5894 5895 5895 5895 5895 5895 5896 5896
5894 5893 5893 5892 5891 5890 5889 5888 5887 5887 5887 5886 5886 5886 5885 5885 5885 5885 5886 5886 5886 5887 5887 5888 5888 5889 5889 5890 5890 5891 5891 5892 5892 5893 5893 5894 5894 5895 5895 5895 5895 5895 5896
5894 5894 5893 5892 5891 5890 5889 5888 5888 5887 5887 5886 5886 5886 5886 5886 5886 5886 5885 5886 5886 5887 5887 5887 5888 5888 5889 5890 5890 5890 5891 5891 5891 5892 5893 5893 5894 5894 5894 5894 5895 5895 5895
5895 5894 5894 5893 5892 5891 5890 5888 5888 5887 5887 5886 5886 5886 5886 5886 5886 5886 5886 5886 5886 5886 5886 5887 5887 5888 5888 5889 5889 5890 5890 5890 5891 5891 5892 5893 5893 5893 5894 5894 5894 5894 5894
5896 5895 5894 5893 5892 5891 5890 5889 5888 5887 5887 5886 5886 5886 5886 5886 5886 5886 5886 5886 5886 5886 5886 5886 5886 5887 5888 5888 5889 5889 5889 5889 5890 5890 5891 5892 5892 5893 5893 5893 5893 5893 5893
5897 5896 5895 5894 5893 5892 5890 5889 5888 5887 5887 5886 5886 5886 5885 5885 5886 5886 5886 5885 5885 5885 5885 5885 5886 5886 5887 5887 5888 5888 5888 5888 5889 5889 5890 5890 5891 5892 5892 5892 5892 5892 5892
5897 5896 5896 5894 5893 5892 5891 5889 5888 5887 5886 5886 5885 5885 5885 5885 5885 5885 5885 5885 5884 5884 5884 5884 5885 5885 5885 5886 5886 5887 5887 5887 5887 5888 5888 5889 5890 5890 5890 5891 5891 5890 5890
5898 5897 5896 5895 5894 5892 5891 5890 5888 5887 5886 5885 5884 5884 5884 5884 5884 5884 5884 5884 5883 5883 5883 5884 5884 5883 5884 5884 5885 5885 5885 5885 5886 5886 5887 5887 5888 5889 5889 5889 5889 5889 5889
5899 5898 5896 5895 5894 5893 5891 5890 5889 5887 5886 5885 5884 5884 5883 5883 5883 5883 5883 5883 5883 5882 5882 5883 5883 5883 5883 5883 5883 5883 5884 5884 5884 5884 5885 5885 5886 5887 5887 5887 5887 5887 5887
5899 5898 5897 5895 5894 5893 5891 5890 5889 5887 5886 5884 5884 5884 5883 5883 5882 5882 5882 5882 5882 5882 5882 5882 5882 5882 5882 5882 5882 5882 5882 5882 5882 5882 5883 5883 5884 5884 5885 5885 5885 5885 5885
5899 5898 5897 5895 5894 5893 5891 5890 5888 5887 5886 5884 5884 5883 5882 5882 5881 5881 5881 5881 5881 5880 5880 5880 5880 5880 5880 5880 5880 5880 5880 5880 5880 5880 5880 5880 5881 5881 5882 5882 5882 5882 5882
5900 5898 5897 5895 5894 5893 5891 5890 5888 5887 5885 5884 5883 5883 5882 5881 5880 5880 5880 5879 5879 5879 5879 5879 5879 5879 5878 5879 5879 5878 5878 5878 5878 5878 5878 5878 5878 5878 5879 5879 5880 5880 5880
5900 5898 5897 5895 5893 5892 5891 5889 5888 5886 5885 5884 5883 5882 5881 5880 5879 5878 5878 5878 5877 5877 5878 5878 5877 5877 5877 5877 5877 5876 5876 5876 5875 5875 5875 5875 5875 5875 5876 5876 5876 5877 5877
5899 5898 5896 5894 5893 5891 5890 5888 5887 5885 5884 5883 5881 5880 5879 5878 5878 5877 5877 5876 5876 5876 5875 5875 5875 5875 5875 5875 5875 5874 5873 5873 5872 5871 5871 5871 5871 5872 5872 5872 5873 5873 5874
5899 5897 5895 5893 5892 5890 5889 5887 5885 5884 5882 5881 5880 5879 5878 5877 5876 5875 5875 5874 5874 5874 5873 5873 5873 5873 5873 5872 5872 5871 5871 5870 5869 5868 5868 5868 5868 5868 5869 5869 5869 5870 5870
5898 5896 5894 5892 5890 5889 5887 5886 5884 5883 5881 5880 5878 5877 5876 5875 5874 5873 5873 5872 5872 5871 5871 5871 5871 5870 5870 5869 5869 5868 5868 5867 5866 5865 5865 5864 5864 5864 5865 5865 5866 5866 5867
5896 5894 5893 5891 5889 5888 5886 5884 5883 5881 5879 5878 5877 5875 5874 5873 5872 5871 5871 5870 5869 5869 5869 5868 5868 5868 5867 5866 5866 5865 5865 5864 5863 5862 5862 5861 5861 5861 5861 5861 5862 5862 5863
5895 5893 5892 5890 5889 5887 5885 5883 5881 5879 5878 5876 5875 5873 5872 5871 5870 5869 5868 5867 5867 5866 5866 5866 5865 5865 5864 5863 5863 5862 5861 5861 5860 5859 5858 5858 5857 5857 5857 5858 5858 5858 5859
5895 5892 5891 5889 5888 5886 5883 5881 5879 5878 5876 5874 5872 5871 5870 5868 5867 5866 5866 5865 5864 5864 5863 5863 5862 5861 5861 5860 5859 5859 5857 5856 5856 5856 5855 5854 5853 5853 5853 5853 5854 5854 5854
5893 5892 5890 5888 5886 5884 5882 5880 5878 5876 5874 5872 5870 5868 5867 5866 5864 5864 5863 5862 5861 5861 5860 5859 5859 5858 5858 5857 5856 5855 5853 5852 5852 5851 5851 5850 5849 5849 5849 5849 5849 5849 5849
5892 5890 5888 5887 5885 5883 5880 5878 5876 5874 5872 5870 5868 5866 5865 5863 5862 5861 5860 5859 5858 5857 5857 5856 5855 5855 5854 5853 5852 5851 5850 5848 5847 5847 5846 5845 5845 5844 5843 5843 5843 5844 5844